Location: Le Domaine
(47.0333°N, 76.5361°W)
Time: 05:16:14
(UTC-05:00)

S-56A Canister/Altair - Pass Details

Date: 22 November 2019
Orbit: 633 x 2499 km, 38.9° (Epoch: 06 December)

Event Time Altitude Azimuth Distance (km) Brightness Sun altitude
Rises 20:50:03 0° 273° (W) 4,270 12.1 -44.5°
Reaches altitude 10° 20:54:00 10° 259° (W) 2,959 11.0 -45.1°
Enters shadow 20:55:41 15° 249° (WSW) 2,464 10.4 -45.4°
Maximum altitude 20:59:01 22° 212° (SSW) 1,849 - -45.9°
Drops below altitude 10° 21:03:01 10° 162° (SSE) 2,278 - -46.5°
Sets 21:05:37 0° 146° (SE) 3,057 - -47.0°
